CW2931 Weather Reports


Display with metric or nautical units.
time (UTC)temp
F
wind
direction
speed
MPH
gust
MPH
rain 1hr
in
rain 24hr
in
rain mn
in
humidity
%
barometer
mb
20260502152103 44 3 0.0 0.0 0.00 0.03 0.03 62 1017.8
20260502151604 44 328 0.0 0.0 0.00 0.03 0.03 62 1017.8
20260502151104 44 298 0.0 0.0 0.00 0.03 0.03 63 1017.8
20260502150604 44 351 0.0 0.0 0.00 0.03 0.03 64 1017.8
20260502150104 44 313 0.0 0.0 0.00 0.03 0.03 65 1017.7
20260502140104 45 39 0.0 0.0 0.00 0.04 0.03 69 1017.6
20260502130604 43 324 0.0 0.0 0.00 0.04 0.03 85 1017.9
20260502130104 43 329 0.0 0.0 0.00 0.04 0.03 85 1017.9
20260502123604 41 301 0.0 0.0 0.00 0.04 0.03 87 1017.8
20260502123104 41 310 0.0 0.0 0.00 0.04 0.03 87 1017.8
20260502122604 40 337 0.0 0.0 0.00 0.04 0.03 87 1017.8
20260502122103 40 337 0.0 0.0 0.00 0.04 0.03 87 1017.8
20260502121603 40 310 0.0 0.0 0.00 0.04 0.03 87 1017.8
20260502121104 40 327 0.0 0.0 0.00 0.04 0.03 87 1017.8
20260502120104 39 0 0.0 0.0 0.00 0.04 0.03 87 1017.7
20260502115604 39 0 0.0 0.0 0.00 0.04 0.03 87 1017.6
20260502115104 38 0 0.0 0.0 0.00 0.04 0.03 86 1017.7
20260502114604 38 0 0.0 0.0 0.00 0.04 0.03 86 1017.7
20260502114103 38 0 0.0 0.0 0.00 0.04 0.03 86 1017.6
20260502113104 38 0 0.0 0.0 0.00 0.04 0.03 86 1017.6
20260502112603 38 0 0.0 0.0 0.00 0.04 0.03 86 1017.5
20260502112104 38 0 0.0 0.0 0.00 0.04 0.03 86 1017.4
20260502111603 38 0 0.0 0.0 0.00 0.04 0.03 85 1017.3
20260502111104 38 0 0.0 0.0 0.00 0.04 0.03 85 1017.3
20260502110604 38 0 0.0 0.0 0.00 0.04 0.03 85 1017.3
20260502110104 38 0 0.0 0.0 0.00 0.04 0.03 85 1017.3
20260502105604 38 0 0.0 0.0 0.00 0.04 0.03 85 1017.3
20260502105103 38 0 0.0 0.0 0.00 0.04 0.03 85 1017.3
20260502104104 38 0 0.0 0.0 0.00 0.04 0.03 85 1017.2
20260502103604 38 0 0.0 0.0 0.00 0.04 0.03 85 1017.2
20260502103103 38 0 0.0 0.0 0.00 0.04 0.03 85 1017.2
20260502102604 39 0 0.0 0.0 0.00 0.04 0.03 85 1017.3
20260502102104 39 0 0.0 0.0 0.00 0.04 0.03 85 1017.3
20260502101604 39 0 0.0 0.0 0.00 0.04 0.03 85 1017.3
20260502101104 39 0 0.0 0.0 0.00 0.04 0.03 85 1017.3
20260502100604 39 0 0.0 0.0 0.00 0.04 0.03 85 1017.3
20260502091104 39 0 0.0 0.0 0.01 0.04 0.03 85 1016.9
20260502090604 39 0 0.0 0.0 0.01 0.04 0.03 84 1016.8
20260502090103 39 0 0.0 0.0 0.01 0.04 0.03 84 1016.8
20260502080104 39 0 0.0 0.0 0.00 0.03 0.02 83 1016.7
20260502065606 39 0 0.0 0.0 0.01 0.04 0.02 82 1016.6
20260502065105 39 0 0.0 0.0 0.01 0.04 0.02 82 1016.6
20260502064605 39 0 0.0 0.0 0.01 0.04 0.02 82 1016.7
20260502064106 39 0 0.0 0.0 0.01 0.04 0.02 82 1016.7
20260502063605 39 0 0.0 0.0 0.01 0.04 0.02 82 1016.7
20260502063105 39 0 0.0 0.0 0.02 0.04 0.02 81 1016.7
20260502062606 39 0 0.0 0.0 0.02 0.04 0.02 81 1016.7
20260502062106 40 0 0.0 0.0 0.02 0.04 0.02 81 1016.8
20260502061605 40 0 0.0 0.0 0.01 0.03 0.01 81 1016.8
20260502061105 40 0 0.0 0.0 0.01 0.03 0.01 81 1016.9
20260502060605 40 0 0.0 0.0 0.01 0.03 0.01 81 1017.0
20260502060106 40 0 0.0 0.0 0.01 0.03 0.01 81 1017.0
20260502055606 40 0 0.0 0.0 0.01 0.03 0.01 80 1017.1
20260502055105 40 0 0.0 0.0 0.01 0.03 0.01 80 1017.2
20260502054606 41 358 0.0 0.0 0.01 0.03 0.01 80 1017.2
20260502054106 41 359 0.0 0.0 0.01 0.03 0.01 80 1017.2
20260502053605 41 334 0.0 0.0 0.01 0.03 0.01 80 1017.2
20260502053106 41 40 0.0 0.0 0.00 0.02 0.00 80 1017.2
20260502052605 41 44 0.0 0.0 0.00 0.02 0.00 80 1017.2
20260502052105 41 44 0.0 0.0 0.00 0.02 0.00 79 1017.2
20260502051605 41 44 0.0 0.0 0.00 0.02 0.00 79 1017.2
20260502051106 41 44 0.0 0.0 0.00 0.02 0.00 79 1017.1
20260502050606 41 47 0.0 0.0 0.00 0.02 0.00 78 1017.0
20260502045605 42 49 0.0 0.0 0.00 0.02 0.00 78 1016.9
20260502045105 42 49 0.0 0.0 0.00 0.02 0.00 78 1016.9
20260502044605 42 49 0.0 0.0 0.00 0.02 0.00 77 1016.8
20260502043605 42 47 0.0 0.0 0.00 0.02 0.00 77 1016.8
20260502042105 42 44 0.0 0.0 0.00 0.02 0.00 76 1016.6
20260502041606 42 63 0.0 0.0 0.00 0.02 0.00 77 1016.6
20260502041105 43 51 0.0 0.0 0.00 0.02 0.00 77 1016.6
20260502040105 43 59 0.0 0.0 0.00 0.02 0.00 78 1016.4
20260502035105 43 57 0.0 0.0 0.00 0.02 0.02 79 1016.2
20260502034605 43 57 0.0 0.0 0.00 0.02 0.02 79 1016.2
20260502034105 43 91 0.0 0.0 0.00 0.02 0.02 79 1016.2
20260502033605 43 96 0.0 0.0 0.00 0.02 0.02 80 1016.2
20260502033105 43 99 0.0 0.0 0.00 0.02 0.02 80 1016.1
20260502032606 44 96 0.0 0.0 0.00 0.02 0.02 80 1016.1
20260502031606 44 118 0.0 0.0 0.00 0.02 0.02 79 1016.1
20260502031105 44 112 0.0 0.0 0.00 0.02 0.02 80 1016.1
20260502030605 44 98 0.0 0.0 0.00 0.02 0.02 79 1016.1
20260502030106 44 107 0.0 0.0 0.00 0.02 0.02 79 1016.1
20260502025605 44 115 0.0 0.0 0.00 0.02 0.02 79 1016.0
20260502025105 44 98 0.0 0.0 0.00 0.02 0.02 79 1016.0
20260502023606 44 98 0.0 0.0 0.00 0.02 0.02 78 1016.0
20260502023105 44 98 0.0 0.0 0.00 0.02 0.02 78 1016.1
20260502022605 44 98 0.0 0.0 0.00 0.02 0.02 77 1016.1
20260502022105 45 149 0.0 0.0 0.00 0.02 0.02 77 1016.1
20260502021605 45 155 0.0 0.0 0.00 0.02 0.02 77 1016.1
20260502021105 45 138 0.0 0.0 0.00 0.02 0.02 77 1016.0
20260502020105 45 109 0.0 0.0 0.00 0.02 0.02 76 1015.7
20260502015605 45 108 0.0 0.0 0.00 0.02 0.02 75 1015.6
20260502014606 45 143 0.0 0.0 0.00 0.02 0.02 74 1015.6
20260502014105 45 90 0.0 0.0 0.00 0.02 0.02 73 1015.5
20260502013605 46 90 0.0 0.0 0.00 0.02 0.02 73 1015.4
20260502013105 46 89 0.0 0.0 0.00 0.02 0.02 72 1015.4
20260502012605 46 89 0.0 0.0 0.00 0.02 0.02 72 1015.5
20260502012105 46 90 0.0 0.0 0.00 0.02 0.02 71 1015.4
20260502011605 46 90 0.0 0.0 0.00 0.02 0.02 71 1015.3
20260502011106 46 90 0.0 0.0 0.00 0.02 0.02 71 1015.2
20260502010605 46 89 0.0 0.0 0.00 0.02 0.02 70 1015.2
20260502010105 46 84 0.0 0.0 0.00 0.02 0.02 70 1015.0
20260502005605 47 93 0.0 0.0 0.00 0.02 0.02 68 1015.0
20260502004605 47 58 0.0 0.0 0.00 0.02 0.02 66 1015.0
20260502004105 47 9 0.0 0.0 0.00 0.02 0.02 66 1015.0
20260502003605 47 9 0.0 0.0 0.00 0.02 0.02 65 1015.0
20260502003106 47 9 0.0 0.0 0.00 0.02 0.02 65 1014.9
20260502002606 47 9 0.0 0.0 0.00 0.02 0.02 65 1014.9
20260502001605 47 19 0.0 0.0 0.00 0.02 0.02 65 1014.8
20260502001105 47 15 0.0 0.0 0.00 0.02 0.02 65 1014.7
20260502000605 47 325 0.0 0.0 0.00 0.02 0.02 65 1014.6
20260501235605 48 320 0.0 0.0 0.00 0.02 0.02 65 1014.5
20260501235105 48 302 0.0 0.0 0.00 0.02 0.02 65 1014.4
20260501234105 49 309 0.0 0.0 0.00 0.02 0.02 64 1014.4
20260501233605 49 309 0.0 0.0 0.00 0.02 0.02 64 1014.4
20260501233105 49 299 0.0 0.0 0.00 0.02 0.02 63 1014.4
20260501232605 49 296 0.0 0.0 0.00 0.02 0.02 62 1014.4
20260501231605 49 352 0.0 0.0 0.00 0.02 0.02 59 1014.4
20260501231105 49 7 0.0 0.0 0.00 0.02 0.02 59 1014.2
20260501230605 49 13 0.0 0.0 0.00 0.02 0.02 59 1014.0
20260501230106 49 13 0.0 0.0 0.00 0.02 0.02 59 1014.1
20260501225605 49 13 0.0 0.0 0.00 0.02 0.02 59 1014.1
20260501225106 49 13 0.0 0.0 0.00 0.02 0.02 59 1014.0
20260501224605 49 13 0.0 0.0 0.00 0.02 0.02 59 1014.0
20260501222605 50 17 0.0 0.0 0.00 0.02 0.02 59 1014.2
20260501222105 50 15 0.0 0.0 0.00 0.02 0.02 58 1014.2
20260501221605 50 15 0.0 0.0 0.00 0.02 0.02 57 1014.0
20260501220604 50 350 0.0 0.0 0.00 0.02 0.02 56 1013.9
20260501215604 50 348 0.0 0.0 0.00 0.02 0.02 57 1013.8
20260501215105 50 30 0.0 0.0 0.00 0.02 0.02 58 1013.8
20260501214605 50 21 0.0 0.0 0.00 0.02 0.02 60 1013.8
20260501214105 50 22 0.0 0.0 0.00 0.02 0.02 60 1013.8
20260501213605 50 22 0.0 0.0 0.00 0.02 0.02 62 1013.8
20260501213105 50 30 0.0 0.0 0.00 0.02 0.02 63 1013.8
20260501212605 50 30 0.0 0.0 0.00 0.02 0.02 63 1013.7
20260501212105 50 38 0.0 0.0 0.00 0.02 0.02 64 1013.7
20260501211605 50 38 0.0 0.0 0.00 0.02 0.02 64 1013.6
20260501210604 51 182 0.0 0.0 0.00 0.02 0.02 63 1013.3
20260501210105 51 182 0.0 0.0 0.00 0.02 0.02 62 1013.3
20260501205605 51 176 0.0 0.0 0.00 0.02 0.02 61 1013.3
20260501204105 51 104 0.0 0.0 0.00 0.02 0.02 59 1013.3
20260501203604 51 104 0.0 0.0 0.00 0.02 0.02 59 1013.3
20260501203105 51 104 0.0 0.0 0.00 0.02 0.02 58 1013.3
20260501202605 51 104 0.0 0.0 0.00 0.02 0.02 60 1013.3
20260501201605 51 104 1.0 1.0 0.00 0.02 0.02 61 1013.3
20260501201105 51 103 1.0 3.0 0.00 0.02 0.02 61 1013.3
20260501200605 51 100 1.0 3.0 0.00 0.02 0.02 62 1013.3
20260501200105 51 117 1.0 3.0 0.00 0.02 0.02 61 1013.3
20260501195605 51 111 2.0 3.0 0.00 0.02 0.02 60 1013.2
20260501195105 51 178 1.0 3.0 0.00 0.02 0.02 61 1013.2
20260501194605 51 188 1.0 3.0 0.00 0.02 0.02 61 1013.3
20260501194105 51 163 2.0 3.0 0.00 0.02 0.02 61 1013.3
20260501193605 51 167 1.0 3.0 0.00 0.02 0.02 61 1013.3
20260501193105 52 146 0.0 2.0 0.00 0.02 0.02 60 1013.3
20260501192604 52 171 0.0 0.0 0.00 0.02 0.02 58 1013.2
20260501192104 52 172 0.0 0.0 0.00 0.02 0.02 60 1013.1
20260501191604 52 172 0.0 0.0 0.00 0.02 0.02 60 1013.0
20260501191105 52 172 0.0 0.0 0.00 0.02 0.02 60 1013.0
20260501190605 52 136 0.0 0.0 0.00 0.02 0.02 61 1012.9
20260501190105 52 164 0.0 0.0 0.00 0.02 0.02 62 1012.9
20260501185605 51 79 0.0 3.0 0.00 0.02 0.02 64 1013.0
20260501185104 50 20 0.0 0.0 0.00 0.02 0.02 62 1013.0
20260501184605 50 329 0.0 0.0 0.00 0.02 0.02 62 1012.9
20260501184105 50 327 0.0 0.0 0.00 0.02 0.02 61 1012.9
20260501183105 50 9 0.0 0.0 0.00 0.02 0.02 62 1012.9
20260501182605 49 48 0.0 0.0 0.00 0.02 0.02 63 1012.9
20260501181605 49 91 0.0 0.0 0.00 0.02 0.02 65 1012.9
20260501181104 49 50 0.0 0.0 0.00 0.02 0.02 64 1012.9
20260501180605 50 88 0.0 0.0 0.00 0.02 0.02 63 1012.9
20260501175605 51 69 0.0 0.0 0.00 0.02 0.02 62 1012.9
20260501175105 51 71 0.0 0.0 0.00 0.02 0.02 60 1012.8
20260501174605 51 59 1.0 3.0 0.00 0.02 0.02 59 1012.8
20260501174105 52 23 1.0 3.0 0.00 0.02 0.02 58 1012.7
20260501173605 52 22 0.0 0.0 0.00 0.02 0.02 58 1012.8
20260501173105 52 22 0.0 0.0 0.00 0.02 0.02 58 1012.7
20260501172605 52 22 0.0 0.0 0.00 0.02 0.02 58 1012.7
20260501172104 52 21 0.0 0.0 0.00 0.02 0.02 60 1012.7
20260501171604 52 349 0.0 0.0 0.00 0.02 0.02 61 1012.7
20260501171106 51 36 0.0 0.0 0.00 0.02 0.02 62 1012.7
20260501170605 51 6 0.0 0.0 0.00 0.02 0.02 64 1012.8
20260501170105 51 11 0.0 3.0 0.00 0.02 0.02 66 1012.8
20260501165605 50 65 2.0 3.0 0.00 0.02 0.02 67 1012.8
20260501165104 50 13 2.0 5.0 0.00 0.02 0.02 69 1012.9
20260501164605 49 8 0.0 0.0 0.00 0.03 0.02 70 1012.9
20260501164105 49 355 0.0 0.0 0.00 0.03 0.02 71 1012.9
20260501162605 48 294 0.0 0.0 0.00 0.03 0.02 74 1012.9
20260501162105 48 17 0.0 0.0 0.00 0.03 0.02 75 1013.0
20260501161605 48 321 0.0 0.0 0.00 0.03 0.02 77 1012.9
20260501161105 48 317 0.0 0.0 0.00 0.03 0.02 77 1012.9
20260501160605 48 9 0.0 0.0 0.00 0.03 0.02 77 1012.9
20260501160104 47 0 0.0 0.0 0.00 0.03 0.02 78 1013.0
20260501155604 47 0 0.0 0.0 0.01 0.03 0.02 78 1013.0
20260501155104 47 351 0.0 0.0 0.01 0.03 0.02 79 1013.0